SCP
0 0 0 0 0 0 0 0 0 0 0 0 0 0 0 0 0 0 0 0 0 0 0 0 0 0 0 0 0 0 0 0 0 0 0 0 0 0 0 0 0 0 0
0 0 0 0 0 0 0 0 0 0 0 0 0 0 0 0 0 0 0 0 0 0 0 0 0 0 0 0 0 0 0 0 0 0 0 0 0 0 0 0 0 0 0
0 0 0 0 0 0 0 0 0 0 0 0 0 0 0 0 0 0 0 0 0 0 0 0 0 0 0 0 0 0 0 0 0 0 0 0 0 0 0 0 0 0 0
0 0 0 0 0 0 0 0 0 0 0 0 0 0 0 0 0 0 0 0 0 0 0 0 0 0 0 0 0 0 0 0 0 0 0 0 0 0 0 0 0 0 0
0 0 0 0 0 0 0 0 0 0 0 0 0 0 0 0 0 0 0 0 0 0 0 0 0 0 0 0 0 0 0 0 0 0 0 0 0 0 0 0 0 0 0
0 0 0 0 0 0 0 0 0 0 0 0 0 0 0 0 0 0 0 0 0 0 0 0 0 0 0 0 0 0 0 0 0 0 0 0 0 0 0 0 0 0 0
0 0 0 0 0 0 0 0 0 0 0 0 0 0 0 0 0 0 0 0 0 0 0 0 0 0 0 0 0 0 0 0 0 0 0 0 0 0 0 0 0 0 0
0 0 0 0 0 0 0 0 0 0 0 0 0 0 0 0 0 0 0 0 0 0 0 0 0 0 0 0 0 0 0 0 0 0 0 0 0 0 0 0 0 0 0
0 0 0 0 0 0 0 0 0 0 0 0 0 0 0 0 0 0 0 0 0 0 0 0 0 0 0 0 0 0 0 0 0 0 0 0 0 0 0 0 0 0 0
0 0 0 0 0 0 0 0 0 0 0 0 0 0 0 0 0 0 0 0 0 0 0 0 0 0 0 0 0 0 0 0 0 0 0 0 0 0 0 0 0 0 0
0 0 0 0 0 0 0 0 0 0 0 0 0 0 0 0 0 0 0 0 0 0 0 0 0 0 0 0 0 0 0 0 0 0 0 0 0 0 0 0 0 0 0
0 0 0 0 0 0 0 0 0 0 0 0 0 0 0 0 0 0 0 0 0 0 0 0 0 0 0 0 0 0 0 0 0 0 0 0 0 0 0 0 0 0 0
0 0 0 0 0 0 0 0 0 0 0 0 0 0 0 0 0 0 0 0 0 0 0 0 0 0 0 0 0 0 0 0 0 0 0 0 0 0 0 0 0 0 0
0 0 0 0 0 0 0 0 0 0 0 0 0 0 0 0 0 0 0 0 0 0 0 0 0 0 0 0 0 0 0 0 0 0 0 0 0 0 0 0 0 0 0
0 0 0 0 0 0 0 0 0 0 0 0 0 0 0 0 0 0 0 0 0 0 0 0 0 0 0 0 0 0 0 0 0 0 0 0 0 0 0 0 0 0 0
0 0 0 0 0 0 0 0 0 0 0 0 0 0 0 0 0 0 0 0 0 0 0 0 0 0 0 0 0 0 0 0 0 0 0 0 0 0 0 0 0 0 0
0 0 0 0 0 0 0 0 0 0 0 0 0 0 0 0 0 0 0 0 0 0 0 0 0 0 0 0 0 0 0 0 0 0 0 0 0 0 0 0 0 0 0
0 0 0 0 0 0 0 0 0 0 0 0 0 0 0 0 0 0 0 0 0 0 0 0 0 0 0 0 0 0 0 0 0 0 0 0 0 0 0 0 0 0 0
0 0 0 0 0 0 0 0 0 0 0 0 0 0 0 0 0 0 0 0 0 0 0 0 0 0 0 0 0 0 0 0 0 0 0 0 0 0 0 0 0 0 0
0 0 0 0 0 0 0 0 0 0 0 0 0 0 0 0 0 0 0 0 0 0 0 0 0 0 0 0 0 0 0 0 0 0 0 0 0 0 0 0 0 0 0
0 0 0 0 0 0 0 0 0 0 0 0 0 0 0 0 0 0 0 0 0 0 0 0 0 0 0 0 0 0 0 0 0 0 0 0 0 0 0 0 0 0 0
0 0 0 0 0 0 0 0 0 0 0 0 0 0 0 0 0 0 0 0 0 0 0 0 0 0 0 0 0 0 0 0 0 0 0 0 0 0 0 0 0 0 0
0 0 0 0 0 0 0 0 0 0 0 0 0 0 0 0 0 0 0 0 0 0 0 0 0 0 0 0 0 0 0 0 0 0 0 0 0 0 0 0 0 0 0
0 0 0 0 0 0 0 0 0 0 0 0 0 0 0 0 0 0 0 0 0 0 0 0 0 0 0 0 0 0 0 0 0 0 0 0 0 0 0 0 0 0 0
0 0 0 0 0 0 0 0 0 0 0 0 0 0 0 0 0 0 0 0 0 0 0 0 0 0 0 0 0 0 0 0 0 0 0 0 0 0 0 0 0 0 0
0 0 0 0 0 0 0 0 0 0 0 0 0 0 0 0 0 0 0 0 0 0 0 0 0 0 0 0 0 0 0 0 0 0 0 0 0 0 0 0 0 0 0
Wind_Speed
4 5 5 4 5 4 5 4 5 6 6 7 6 7 7 7 7 6 5 11 11 11 10 10 9 9 8 8 8 8 8 7 6 6 6 6 7 7 7 8 8 7 7
4 4 5 5 5 5 5 5 6 5 5 5 6 7 7 6 7 6 6 8 11 12 11 10 9 9 8 7 7 8 8 7 6 6 6 6 6 7 7 8 8 8 7
4 4 4 4 4 4 5 5 6 5 5 5 6 6 6 6 6 6 6 5 6 9 11 11 10 9 8 8 8 8 7 7 6 6 6 7 7 7 7 7 7 7 7
5 4 3 4 4 3 3 4 4 4 4 4 5 5 5 5 6 6 5 5 5 5 7 11 11 10 9 8 7 7 7 8 7 7 8 7 7 7 7 7 7 7 7
4 4 3 3 3 3 3 4 4 4 4 4 4 4 4 5 5 5 5 6 6 5 5 7 9 10 10 10 9 8 7 8 8 8 8 8 8 8 8 7 7 7 7
3 3 2 3 3 2 3 3 4 3 3 3 4 4 4 4 4 5 5 5 5 6 6 5 4 6 9 10 10 9 9 8 8 8 8 8 8 8 7 7 7 7 8
3 3 2 2 2 2 2 3 3 4 3 2 2 3 4 4 5 4 4 4 5 6 5 5 4 4 4 8 10 10 9 8 8 8 8 8 8 7 7 7 7 7 7
2 2 1 2 2 2 2 2 2 1 2 1 1 0 2 3 4 4 4 4 4 4 5 5 5 5 4 4 8 10 10 10 9 9 8 8 8 7 6 6 6 6 6
1 1 1 1 1 1 1 1 1 1 1 1 2 2 1 1 2 3 4 4 4 4 4 4 5 5 5 4 4 8 9 9 9 9 8 8 7 7 7 6 6 5 5
1 1 1 1 1 1 1 1 1 0 0 0 1 2 2 2 0 1 2 4 5 4 4 4 4 4 4 4 6 8 9 8 8 8 7 7 7 7 7 7 7 7 6
1 1 1 1 1 1 1 1 0 0 0 1 1 1 1 1 1 0 1 2 3 3 4 4 3 3 4 4 4 7 8 7 7 7 7 7 6 6 6 6 6 6 7
1 1 1 1 1 1 1 1 0 0 1 1 1 0 0 0 0 0 1 1 2 2 3 3 3 3 2 3 5 8 7 7 6 6 6 6 6 5 5 6 6 6 7
2 2 2 2 1 1 1 1 1 1 1 0 1 1 1 1 1 1 0 0 1 1 1 2 2 2 2 2 3 5 5 5 6 6 6 6 6 5 5 5 5 5 6
2 2 2 2 2 2 2 2 1 1 1 1 0 0 1 0 1 1 1 1 1 0 1 1 1 2 1 1 3 1 3 5 4 5 5 5 5 5 5 5 5 5 5
2 3 3 3 3 3 2 3 2 2 1 1 1 1 1 1 1 1 2 2 2 1 0 1 1 1 1 1 2 1 1 5 4 4 4 4 5 4 4 4 5 5 5
3 3 4 3 3 3 3 3 3 2 2 1 1 2 1 1 1 1 2 2 2 2 1 0 0 1 1 1 2 1 2 5 4 3 4 4 4 4 3 4 4 4 4
4 4 4 4 3 3 3 3 3 3 3 2 2 2 2 1 1 1 2 2 2 1 2 1 1 0 1 0 1 1 1 0 2 4 3 3 3 3 3 3 3 2 2
5 5 4 4 4 4 4 4 4 4 3 3 2 2 2 1 2 2 1 2 2 2 2 2 2 1 1 1 0 0 1 0 1 4 3 2 2 2 2 2 2 2 2
5 5 5 4 4 4 4 4 4 4 4 3 3 3 3 3 3 2 2 2 2 2 2 3 2 1 1 1 1 0 1 0 0 2 3 2 1 1 1 1 2 2 2
5 5 5 4 4 4 4 5 4 4 4 4 3 4 3 3 3 3 3 3 3 3 3 3 3 3 2 2 2 2 1 1 1 0 1 1 2 2 1 0 1 1 1
4 4 4 4 4 4 3 4 4 5 4 4 4 4 3 2 2 2 2 3 3 3 3 4 4 3 3 3 3 2 2 1 1 1 1 1 2 2 2 2 2 2 2
4 4 4 4 4 3 2 3 4 5 5 5 4 4 4 4 3 3 2 3 4 5 4 4 4 5 5 4 3 3 3 3 2 2 2 2 2 2 1 1 2 2 2
3 4 4 4 5 3 3 4 5 6 5 5 4 4 3 3 4 4 4 4 5 5 6 6 6 6 5 4 4 5 4 4 3 2 3 3 2 3 2 1 3 3 3
3 3 4 4 4 3 3 4 5 7 5 5 4 5 4 4 3 4 4 4 5 5 5 6 6 5 4 4 5 5 4 3 3 2 3 3 3 3 3 2 5 4 4
3 3 3 4 4 3 3 3 5 5 5 5 5 5 5 5 1 4 5 5 5 4 3 4 4 3 3 3 3 3 4 4 4 3 3 3 3 3 3 3 4 6 5
3 3 3 3 4 3 3 4 5 4 4 4 4 4 4 4 2 4 6 5 5 4 4 4 4 4 4 4 6 6 5 5 4 3 3 3 3 3 3 3 3 4 4
Wind_Direction
68 73 76 73 71 74 79 74 70 71 68 64 63 63 61 57 56 56 65 60 51 47 46 51 54 59 65 69 76 78 81 78 74 72 73 75 77 79 80 78 75 76 75
73 73 74 72 71 71 70 74 74 71 68 65 65 62 57 57 55 53 56 63 57 48 44 47 51 57 62 64 69 72 73 68 68 72 77 81 83 83 84 79 75 72 74
75 77 74 78 77 78 77 73 73 69 72 74 70 64 60 56 53 52 49 45 55 57 48 44 47 52 59 67 71 71 70 67 64 76 83 81 81 82 85 79 76 72 73
75 76 76 77 81 85 84 81 74 75 75 70 67 63 61 61 55 53 52 49 43 43 54 47 43 47 53 56 65 74 75 72 67 88 90 86 84 81 81 79 78 76 74
79 83 74 75 83 85 85 84 76 69 73 70 70 65 57 55 52 49 51 48 52 45 44 56 52 47 47 46 52 61 70 77 73 85 91 92 90 85 78 78 79 76 74
77 81 89 87 87 92 91 93 90 79 72 73 71 69 63 64 58 47 42 44 43 42 39 40 49 59 54 47 47 54 58 69 76 79 83 86 90 87 81 76 77 78 76
94 87 85 90 85 84 89 101 100 95 85 80 93 90 92 72 59 54 43 42 47 41 38 41 38 38 63 63 50 49 52 61 71 78 80 81 81 86 84 81 78 78 78
101 98 102 102 107 98 102 100 102 90 77 15 347 63 122 114 72 56 49 44 41 44 37 40 41 42 39 55 59 49 47 52 64 73 77 78 77 81 82 79 78 78 78
114 111 88 103 110 120 105 106 119 101 73 62 6 340 343 65 80 73 53 49 44 40 38 35 39 39 45 50 65 59 46 45 54 64 71 73 74 72 74 72 73 78 81
130 138 130 126 122 105 112 148 101 62 351 60 74 11 12 41 321 102 84 61 47 42 38 34 31 35 39 50 60 54 47 42 50 58 64 66 68 69 70 69 70 69 72
159 167 167 163 157 142 136 100 66 312 323 352 16 66 74 65 320 107 87 68 64 51 41 34 31 31 34 43 50 57 48 42 48 55 58 61 64 69 73 71 72 71 68
185 180 178 194 190 177 164 148 181 204 321 6 330 11 331 345 28 115 149 93 63 56 47 39 31 31 29 41 51 55 51 48 51 53 54 57 61 68 73 70 71 70 68
198 200 196 197 183 175 185 190 210 212 204 229 292 331 332 345 325 294 238 43 65 89 76 66 46 36 30 30 56 58 64 57 57 55 55 55 57 63 68 70 71 70 69
212 200 200 196 189 189 191 190 214 203 213 197 202 240 252 281 288 283 276 253 248 182 143 86 72 43 30 36 50 35 76 72 62 58 58 59 59 62 66 67 68 63 61
208 197 199 196 189 190 198 198 214 207 213 228 237 218 232 226 255 266 262 266 275 270 272 98 109 73 41 37 51 32 72 84 74 64 64 64 63 61 68 70 67 57 56
203 198 196 193 186 186 198 206 218 221 220 203 258 263 248 234 232 227 246 265 271 277 282 40 111 123 58 51 48 11 54 101 98 81 73 69 67 62 69 76 69 62 61
202 203 198 198 193 194 200 198 213 217 231 219 218 233 233 244 236 237 248 250 248 248 242 259 250 190 170 111 57 4 2 126 109 101 85 73 69 64 60 77 70 67 70
206 208 199 199 200 205 209 207 215 219 229 235 236 235 229 216 238 249 250 245 235 231 225 237 230 229 231 155 90 313 330 46 115 107 107 88 72 64 56 60 70 77 82
210 209 205 205 204 209 213 218 223 228 232 234 236 240 238 225 230 233 237 242 239 230 225 229 231 229 222 202 211 228 239 228 208 125 134 131 109 88 59 54 63 79 92
214 210 209 208 212 212 217 219 220 224 229 231 237 242 244 239 246 250 245 246 244 236 227 228 225 221 214 206 218 221 231 203 226 147 121 147 145 157 155 136 115 122 118
221 218 214 210 211 216 223 227 222 226 229 230 234 241 242 250 290 274 265 256 252 246 235 228 225 227 222 213 221 227 232 220 233 238 228 214 203 208 193 197 201 182 168
218 219 219 218 213 213 186 232 246 227 232 235 236 237 229 220 225 226 248 265 262 250 244 238 233 230 230 228 224 222 226 230 237 215 243 234 237 242 236 228 145 166 191
207 218 217 217 219 198 175 206 239 241 232 235 240 240 231 224 231 237 221 230 240 244 249 254 247 245 242 228 222 226 232 238 246 222 247 246 237 246 238 172 137 177 197
203 219 221 214 219 201 183 205 224 238 237 234 237 244 239 231 228 250 240 237 244 239 237 245 256 258 253 241 233 237 241 241 248 219 229 250 237 245 237 205 159 183 201
211 219 228 220 215 196 172 200 224 237 238 236 234 237 245 242 225 259 250 245 246 238 220 240 277 286 281 253 239 222 215 220 233 221 218 244 240 241 241 223 176 183 198
213 215 228 227 223 216 166 193 227 234 241 239 239 233 226 253 222 244 246 248 253 253 240 226 231 230 232 210 211 225 223 230 239 228 198 227 233 234 232 214 210 193 198